Total_Precipitation_Accumulation
2.01 2.17 2.47 2.69 2.80 2.95 3.18 3.46 3.88 4.23 4.31 4.12 4.03 3.94 3.62 3.32 2.99 2.68 2.59 2.69 2.61 2.71 3.01 2.78 3.11 3.19 3.35 3.51 3.49 3.63 3.52 3.30 3.40 3.30 2.84 2.32 2.00 1.89 1.75 1.79 1.94 1.88 1.93
2.02 2.22 2.48 2.60 2.57 2.77 3.06 3.47 3.89 4.22 4.12 4.19 4.37 4.30 4.06 3.41 3.04 2.85 2.74 2.66 2.63 2.64 2.73 3.12 3.12 3.22 3.39 3.42 3.32 3.36 3.20 2.96 3.23 3.36 3.21 2.60 2.25 1.86 1.50 1.68 1.68 1.80 2.05
1.65 1.80 1.96 2.13 2.39 2.81 3.22 3.48 3.75 3.91 3.95 4.11 4.24 3.97 3.75 3.25 3.06 3.07 2.89 2.74 2.77 2.77 2.88 3.08 3.16 3.15 3.03 3.16 3.30 3.13 3.03 2.91 2.96 3.14 3.21 2.78 2.33 1.91 1.59 1.49 1.52 1.85 2.06
1.49 1.58 1.70 2.01 2.37 2.75 3.25 3.67 3.69 3.72 3.66 3.80 3.88 3.68 3.33 3.06 2.96 2.96 2.72 2.62 2.56 2.56 2.66 2.73 2.89 2.96 2.89 2.97 2.88 2.88 2.94 2.93 2.75 2.87 2.86 2.72 2.53 2.33 1.88 1.50 1.45 1.66 1.79
1.38 1.48 1.57 1.83 2.08 2.46 2.85 3.24 3.54 3.61 3.48 3.45 3.47 3.56 3.35 3.05 2.84 2.74 2.61 2.54 2.53 2.35 2.30 2.43 2.61 2.64 2.54 2.52 2.68 2.93 2.88 2.75 2.61 2.67 2.72 2.84 2.77 2.48 2.17 1.76 1.60 1.52 1.40
1.46 1.53 1.75 1.91 2.03 2.31 2.63 2.86 3.09 3.14 3.10 3.01 3.02 3.11 3.12 3.05 2.77 2.55 2.52 2.51 2.41 2.24 2.14 2.15 2.27 2.32 2.31 2.28 2.32 2.45 2.51 2.51 2.61 2.63 2.57 2.70 2.67 2.55 2.42 2.02 1.75 1.60 1.27
1.55 1.65 1.82 1.92 1.99 2.12 2.27 2.38 2.49 2.55 2.50 2.49 2.46 2.46 2.54 2.61 2.43 2.31 2.36 2.37 2.26 2.12 2.08 2.03 2.00 1.99 2.01 2.09 2.28 2.28 2.25 2.33 2.45 2.43 2.45 2.39 2.30 2.33 2.32 2.17 1.87 1.67 1.32
1.43 1.54 1.63 1.54 1.54 1.61 1.72 1.84 1.92 1.96 1.93 1.99 2.07 2.09 2.25 2.23 2.15 2.24 2.19 2.21 2.16 2.10 2.01 1.86 1.76 1.72 1.73 1.83 2.07 2.18 2.14 2.23 2.26 2.16 2.29 2.17 2.04 2.13 2.13 2.11 2.15 1.98 1.77
1.15 1.14 1.15 1.19 1.30 1.36 1.39 1.46 1.60 1.65 1.58 1.61 1.75 1.83 1.87 1.92 1.95 2.05 2.02 1.92 1.90 1.77 1.73 1.66 1.60 1.56 1.60 1.69 1.76 1.83 1.81 1.92 1.93 2.00 2.00 1.88 1.87 1.93 1.95 2.05 2.16 2.15 2.03
0.97 0.98 0.94 0.96 1.01 1.04 1.18 1.36 1.49 1.61 1.60 1.53 1.55 1.49 1.56 1.63 1.79 1.86 1.79 1.78 1.79 1.71 1.59 1.53 1.47 1.44 1.43 1.46 1.55 1.56 1.60 1.62 1.61 1.78 1.82 1.79 1.77 1.87 1.85 1.91 2.05 2.17 2.21
0.68 0.73 0.73 0.74 0.79 0.89 1.03 1.19 1.47 1.61 1.51 1.35 1.35 1.41 1.40 1.47 1.58 1.63 1.58 1.61 1.66 1.71 1.65 1.57 1.53 1.43 1.34 1.34 1.39 1.34 1.45 1.46 1.44 1.47 1.51 1.57 1.67 1.82 1.82 1.83 1.87 2.08 2.28
0.52 0.63 0.65 0.60 0.65 0.73 0.83 0.99 1.20 1.35 1.31 1.25 1.27 1.38 1.48 1.46 1.40 1.38 1.39 1.40 1.42 1.41 1.40 1.38 1.41 1.43 1.45 1.45 1.38 1.33 1.33 1.38 1.38 1.42 1.51 1.50 1.63 1.76 1.72 1.79 1.85 2.03 2.28
0.62 0.61 0.64 0.57 0.55 0.59 0.72 0.87 0.95 1.07 1.18 1.18 1.21 1.33 1.34 1.29 1.31 1.41 1.44 1.38 1.35 1.34 1.34 1.33 1.32 1.32 1.42 1.53 1.53 1.48 1.47 1.48 1.39 1.45 1.51 1.44 1.49 1.56 1.59 1.68 1.82 1.97 2.13
0.65 0.62 0.58 0.54 0.50 0.50 0.56 0.66 0.75 0.86 0.95 1.04 1.18 1.35 1.41 1.43 1.47 1.49 1.49 1.42 1.33 1.36 1.39 1.35 1.30 1.31 1.29 1.35 1.49 1.54 1.51 1.48 1.43 1.42 1.40 1.32 1.32 1.40 1.51 1.55 1.73 1.90 2.04
0.54 0.53 0.50 0.47 0.45 0.45 0.47 0.55 0.69 0.80 0.90 1.05 1.21 1.35 1.41 1.44 1.44 1.39 1.42 1.42 1.31 1.28 1.41 1.34 1.29 1.30 1.30 1.22 1.25 1.36 1.35 1.37 1.34 1.31 1.20 1.05 1.05 1.12 1.19 1.24 1.51 1.72 1.86
0.50 0.42 0.45 0.43 0.41 0.39 0.41 0.44 0.59 0.76 0.87 1.02 1.15 1.20 1.28 1.35 1.31 1.26 1.26 1.25 1.26 1.28 1.30 1.27 1.28 1.24 1.05 1.08 1.08 1.08 1.14 1.21 1.22 1.24 1.24 1.09 0.94 0.89 0.95 0.97 1.12 1.37 1.54
0.60 0.54 0.51 0.48 0.42 0.40 0.44 0.47 0.52 0.66 0.86 0.99 1.04 1.11 1.23 1.31 1.28 1.18 1.20 1.23 1.24 1.25 1.22 1.17 1.18 1.17 1.10 0.96 0.87 0.88 1.01 1.15 1.20 1.23 1.27 1.08 0.95 0.94 0.87 0.92 0.99 1.03 1.10
0.45 0.55 0.59 0.58 0.58 0.55 0.57 0.59 0.60 0.67 0.81 0.99 1.09 1.13 1.24 1.28 1.29 1.27 1.21 1.20 1.18 1.18 1.21 1.15 1.14 1.21 1.12 0.99 0.86 0.78 0.78 0.94 1.03 1.05 1.10 1.12 1.12 1.03 0.98 0.95 0.97 0.93 0.94
0.45 0.48 0.53 0.60 0.74 0.80 0.76 0.78 0.80 0.77 0.81 0.96 1.08 1.20 1.33 1.35 1.33 1.33 1.29 1.27 1.25 1.21 1.19 1.20 1.23 1.26 1.25 1.14 0.98 0.90 0.92 1.05 1.09 1.12 1.13 1.17 1.22 1.18 0.99 0.93 0.98 1.01 1.05
0.47 0.47 0.47 0.55 0.70 0.76 0.71 0.74 0.81 0.88 0.91 1.00 1.10 1.20 1.32 1.43 1.39 1.42 1.44 1.40 1.36 1.31 1.27 1.33 1.37 1.35 1.35 1.19 0.98 0.95 1.02 1.21 1.30 1.42 1.40 1.27 1.14 1.10 0.95 0.93 1.01 0.99 0.99
0.46 0.43 0.47 0.62 0.68 0.67 0.70 0.80 0.83 0.91 0.97 1.07 1.15 1.27 1.39 1.44 1.44 1.50 1.55 1.52 1.47 1.49 1.42 1.34 1.37 1.41 1.31 1.06 0.83 0.85 0.94 1.16 1.34 1.36 1.34 1.22 1.00 0.89 0.84 0.80 0.84 0.88 0.82
0.48 0.56 0.66 0.75 0.75 0.77 0.89 0.98 1.02 1.00 1.04 1.16 1.22 1.35 1.49 1.35 1.34 1.56 1.64 1.64 1.64 1.62 1.55 1.47 1.40 1.43 1.41 1.13 0.91 0.84 0.90 1.05 1.30 1.46 1.41 1.25 1.07 0.94 0.86 0.72 0.70 0.71 0.68
0.48 0.60 0.73 0.80 0.81 0.88 1.04 1.25 1.25 1.20 1.18 1.26 1.36 1.39 1.42 1.53 1.61 1.66 1.72 1.71 1.66 1.64 1.59 1.55 1.47 1.46 1.52 1.45 1.13 0.98 0.96 1.07 1.15 1.27 1.39 1.26 1.00 0.86 0.79 0.76 0.68 0.59 0.58
0.48 0.54 0.69 0.77 0.89 1.00 1.15 1.39 1.43 1.40 1.42 1.48 1.54 1.52 1.52 1.56 1.69 1.86 1.85 1.76 1.65 1.67 1.69 1.62 1.62 1.63 1.64 1.56 1.35 1.20 1.10 1.11 1.11 1.13 1.13 1.10 0.98 0.82 0.82 0.84 0.74 0.64 0.68
0.52 0.58 0.74 0.89 0.96 1.01 1.10 1.27 1.44 1.59 1.65 1.65 1.64 1.64 1.65 1.71 1.76 1.76 1.71 1.68 1.62 1.55 1.62 1.66 1.66 1.64 1.60 1.46 1.34 1.28 1.25 1.20 1.13 1.07 1.13 1.10 1.13 1.03 0.99 1.01 0.96 0.90 0.92
0.69 0.67 0.73 0.87 0.95 1.03 1.14 1.28 1.49 1.76 1.95 1.90 1.77 1.75 1.76 1.80 1.78 1.77 1.57 1.38 1.31 1.26 1.22 1.28 1.29 1.27 1.22 1.14 1.06 1.05 1.04 1.02 1.01 0.95 1.09 1.21 1.23 1.21 1.21 1.21 1.19 1.17 1.12